Lexington Weather

Lexington, Massachusetts, USA

41°F
4/22/2024 8:20am 
  • Lexington Conditions: Clear
  • Temperature: 41.4°F / 5.2°CWarmer 3.3°F than last hour.
  • Dew Point: 28.0°FDecreased 1.5°Fsince last hour.
  • Relative Humidity: 59%Decreased 12.0% since last hour.
  • Wind: Calm, 10-min avg: Calm, gust: None
  • Barometer: 29.95 in Steady
  • Visibility: 10 miles
  • Rain Today: 0.00 in
  •   

Regional Weather Roundup
for Boston, MA

        
000
ASUS41 KBOX 192310
RWRBOX

REGIONAL WEATHER ROUNDUP
NATIONAL WEATHER SERVICE BOSTON/NORTON MA
700 PM EDT FRI APR 19 2024

NOTE:  "FAIR" INDICATES FEW OR NO CLOUDS BELOW 12,000 FEET WITH NO 
SIGNIFICANT WEATHER AND/OR OBSTRUCTIONS TO VISIBILITY.

MAZALL-200000-
EASTERN MASSACHUSETTS
  
CITY           SKY/WX    TMP DP  RH WIND       PRES   REMARKS
BOSTON         MOCLDY    53  34  48 S18       30.07R                  
BEVERLY        MOCLDY    48  35  60 SE17G28   30.06S                  
LAWRENCE       CLOUDY    51  33  50 SE8G18    30.06S                  
BEDFORD        CLOUDY    53  33  46 S13       30.04R                  
NORWOOD        CLOUDY    54  36  50 S12       30.08R                  
MARSHFIELD     PTCLDY    50  36  57 S10G16    30.09R                  
PLYMOUTH       PTCLDY    50  34  54 S5        30.09R                  
TAUNTON        MOCLDY    52  36  54 VRB6      30.10R                  
NEW BEDFORD    MOCLDY    49  39  68 S8        30.10S                  
$$

MAZALL-200000-
CAPE COD AND THE ISLANDS
  
CITY           SKY/WX    TMP DP  RH WIND       PRES   REMARKS
FALMOUTH       CLEAR     48  36  61 SE16      30.10F                  
HYANNIS        PTCLDY    45  37  73 SE9       30.09S                  
CHATHAM        PTCLDY    46  38  73 VRB6      30.09F                  
PROVINCETOWN   PTCLDY    48  38  68 S12G18    30.10F                  
NANTUCKET      MOCLDY    46  40  79 SE14      30.09F                  
MARTHAS VNYRD  PTCLDY    47  39  74 SE10      30.09F                  
$$
 
MAZALL-200000-
CENTRAL AND WESTERN MASSACHUSETTS
  
CITY           SKY/WX    TMP DP  RH WIND       PRES   REMARKS
WORCESTER      CLOUDY    51  30  44 S10       30.04F                  
FITCHBURG      CLOUDY    56  31  38 S13       30.03F                  
ORANGE         MOCLDY    55  31  39 S15G22    30.02S                  
SPRINGFIELD    MOCLDY    55  30  39 S20       30.01F                  
WESTFIELD      PTCLDY    53  32  44 S15G22    30.03F                  
NORTH ADAMS    CLOUDY    56  33  42 E10G25    29.99R                  
PITTSFIELD     CLOUDY    51  35  54 VRB7      29.98S                  
$$
 
RIZALL-200000-
RHODE ISLAND
  
CITY           SKY/WX    TMP DP  RH WIND       PRES   REMARKS
PROVIDENCE     CLOUDY    49  37  63 S12       30.11S                  
NEWPORT        CLOUDY    46  39  76 SE7       30.10S                  
BLOCK ISLAND   CLOUDY    44  41  89 E6        30.11F                  
SMITHFIELD     CLOUDY    48  32  53 VRB7      30.09S                  
WESTERLY       CLOUDY    47  41  80 SE8       30.10F                  
$$
 
CTZALL-200000-
CONNECTICUT
  
CITY           SKY/WX    TMP DP  RH WIND       PRES   REMARKS
BRADLEY INTL   MOCLDY    54  35  48 S16       30.05F                  
HARTFORD       MOCLDY    52  39  61 S10       30.06F                  
PLAINVILLE     CLOUDY    52  41  64 S9        30.05F                  
BRIDGEPORT     CLOUDY    51  44  77 SE7       30.07F                  
DANBURY        CLOUDY    53  41  63 S12G21    30.06S                  
GROTON         CLOUDY    48  42  80 SE10      30.09F                  
NEW HAVEN      MOCLDY    51  44  77 E10       30.08F                  
CHESTER        CLOUDY    48  43  81 VRB6      30.08F                  
MERIDEN        MOCLDY    51  39  63 S10       30.07F                  
WILLIMANTIC    MOCLDY    50  32  50 VRB7      30.07F                  
OXFORD         CLOUDY    49  41  74 S8        30.07S                  
$$

MEZ002-015-021-024-NHZ003-005-008-011-012-014-VTZ005-008-200000-
NORTHERN NEW ENGLAND
  
CITY           SKY/WX    TMP DP  RH WIND       PRES   REMARKS
PORTLAND ME    CLOUDY    47  36  65 S8        30.08R                  
BANGOR ME      CLOUDY    48  34  58 S13       30.05F                  
CONCORD NH     CLOUDY    52  37  56 SE15G23   30.01F                  
MANCHESTER NH  CLOUDY    54  36  50 SE12      30.01S                  
NASHUA NH      CLOUDY    55  38  52 SE6G14    30.03F                  
PORTSMOUTH NH  MOCLDY    49  38  65 SE13      30.06S                  
JAFFREY NH     MOCLDY    56  32  40 S14G24    30.00F                  
KEENE NH       CLOUDY    56  33  42 SW13      29.99R                  
BURLINGTON VT  CLOUDY    57  41  55 SW16G28   29.87R                  
MT. WASHINGTON LGT RAIN  34  32  93 SW31G49     N/A  VSB 1/16WCI  20  
$$

NYZ052-076-200000-
EASTERN NEW YORK
  
CITY           SKY/WX    TMP DP  RH WIND       PRES   REMARKS
ALBANY         CLOUDY    57  41  55 S21G30    29.97R                  
NEW YORK CITY  CLOUDY    50  40  68 S9        30.07R                  
$$
 
ANZALL-200000-
MARINE OBSERVATIONS
  
STATION/POSITION TIME  TEMP    WIND        PRES    VSBY  WAVE
                       AIR SEA DIR/SP/G                  HT/PER
                 (UTC) (F)     (DEG/KT/KT) (MB)    (MI)  (FT/S)
BOSTON BUOY      2250   47     150/ 16/ 17 1018.4R         2/ 3
BUZZARDS BAY     2200   45     130/ 12/ 13 1020.0R
NANTUCKET SOUND  2250   47 48  120/ 12/ 16 1018.5F         1/ 3
MASS BAY-STELLWA 2104   47 46  140/ 17/ 21 1019.3F  1 7/8  2/ 4
ISLE OF SHOALS   2200   47     140/ 24/ 25 1017.3F
S OF BLOCK IS    2226      45                N/A           6/ 8
$$

......................KEY.........................
  SKY/WX - SKY CONDITION/PRESENT WEATHER
  TMP    - TEMPERATURE IN FAHRENHEIT
  DWPT   - DEWPOINT IN FAHRENHEIT
  RH     - RELATIVE HUMIDITY IN PERCENT
  WIND   - DIRECTION AND SPEED IN MPH
  PRES   - MEAN SEA LEVEL PRESSURE IN INCHES OF HG
  WCI    - WIND CHILL INDEX
  VSB    - VISIBILITY IN MILES
  HX     - HEAT INDEX
  TC     - TEMPERATURE IN CELSIUS
  VRB    - VARIABLE WIND DIRECTION
  N/A    - NOT AVAILABLE
  
      

Other recent Regional Weather Roundups

Mon Apr 22, 8:10am EDT

Mon Apr 22, 7:10am EDT

Mon Apr 22, 6:10am EDT

Mon Apr 22, 5:10am EDT

Mon Apr 22, 4:10am EDT

Mon Apr 22, 3:10am EDT

Mon Apr 22, 2:10am EDT

Mon Apr 22, 1:10am EDT

Mon Apr 22, 12:10am EDT

Sun Apr 21, 11:10pm EDT

Sun Apr 21, 10:10pm EDT

Sun Apr 21, 9:10pm EDT

Sun Apr 21, 8:10pm EDT

Sun Apr 21, 7:10pm EDT

Sun Apr 21, 6:10pm EDT

Sun Apr 21, 5:10pm EDT

Sun Apr 21, 4:10pm EDT

Sun Apr 21, 3:10pm EDT

Sun Apr 21, 2:10pm EDT

Sun Apr 21, 1:10pm EDT

Sun Apr 21, 12:10pm EDT

Sun Apr 21, 11:10am EDT

Sun Apr 21, 10:10am EDT

Sun Apr 21, 9:10am EDT

Sun Apr 21, 8:10am EDT

Sun Apr 21, 7:10am EDT

Sun Apr 21, 6:10am EDT

Sun Apr 21, 5:10am EDT

Sun Apr 21, 4:10am EDT

Sun Apr 21, 3:10am EDT

Sun Apr 21, 2:10am EDT

Sun Apr 21, 1:10am EDT

Sun Apr 21, 12:10am EDT

Sat Apr 20, 11:10pm EDT

Sat Apr 20, 10:10pm EDT

Sat Apr 20, 9:10pm EDT

Sat Apr 20, 8:10pm EDT

Sat Apr 20, 7:10pm EDT

Sat Apr 20, 6:10pm EDT

Sat Apr 20, 5:10pm EDT

Sat Apr 20, 4:10pm EDT

Sat Apr 20, 3:10pm EDT

Sat Apr 20, 2:10pm EDT

Sat Apr 20, 1:10pm EDT

Sat Apr 20, 12:10pm EDT

Sat Apr 20, 11:10am EDT

Sat Apr 20, 10:10am EDT

Sat Apr 20, 9:10am EDT

Sat Apr 20, 8:10am EDT

Sat Apr 20, 7:10am EDT

Sat Apr 20, 6:10am EDT

Sat Apr 20, 5:10am EDT

Sat Apr 20, 4:10am EDT

Sat Apr 20, 3:10am EDT

Sat Apr 20, 2:10am EDT

Sat Apr 20, 1:10am EDT

Sat Apr 20, 12:10am EDT

Fri Apr 19, 11:10pm EDT

Fri Apr 19, 10:10pm EDT

Fri Apr 19, 9:10pm EDT

Fri Apr 19, 8:10pm EDT

Fri Apr 19, 6:10pm EDT

Fri Apr 19, 5:10pm EDT

Fri Apr 19, 4:10pm EDT

Fri Apr 19, 3:10pm EDT

Fri Apr 19, 2:10pm EDT

Fri Apr 19, 1:10pm EDT

Fri Apr 19, 12:10pm EDT

Fri Apr 19, 11:10am EDT

Fri Apr 19, 10:10am EDT

Fri Apr 19, 9:10am EDT

Fri Apr 19, 8:10am EDT

Fri Apr 19, 7:10am EDT

Fri Apr 19, 6:10am EDT

Fri Apr 19, 5:10am EDT

Fri Apr 19, 4:10am EDT

Fri Apr 19, 3:10am EDT

Fri Apr 19, 2:10am EDT

Fri Apr 19, 1:10am EDT

Fri Apr 19, 12:10am EDT

Thu Apr 18, 11:10pm EDT

Thu Apr 18, 10:10pm EDT

Thu Apr 18, 9:10pm EDT

Thu Apr 18, 8:10pm EDT

Thu Apr 18, 7:10pm EDT

Thu Apr 18, 6:10pm EDT

Thu Apr 18, 5:10pm EDT

Thu Apr 18, 4:10pm EDT

Thu Apr 18, 3:10pm EDT

Thu Apr 18, 2:10pm EDT

Thu Apr 18, 1:10pm EDT

Thu Apr 18, 12:10pm EDT

Thu Apr 18, 11:10am EDT

Thu Apr 18, 10:10am EDT

Thu Apr 18, 9:10am EDT

Thu Apr 18, 8:10am EDT

Thu Apr 18, 7:10am EDT

Thu Apr 18, 6:10am EDT

Thu Apr 18, 5:10am EDT

Thu Apr 18, 4:10am EDT

Thu Apr 18, 3:10am EDT

Thu Apr 18, 2:10am EDT

Thu Apr 18, 1:10am EDT

Thu Apr 18, 12:10am EDT

Wed Apr 17, 11:10pm EDT

Wed Apr 17, 10:10pm EDT

Wed Apr 17, 9:10pm EDT

Wed Apr 17, 8:10pm EDT

Wed Apr 17, 7:10pm EDT

Wed Apr 17, 6:10pm EDT

Wed Apr 17, 5:10pm EDT

Wed Apr 17, 4:10pm EDT

Wed Apr 17, 3:10pm EDT

Wed Apr 17, 2:10pm EDT

Wed Apr 17, 1:10pm EDT

Wed Apr 17, 12:10pm EDT

Wed Apr 17, 11:10am EDT

Wed Apr 17, 10:10am EDT

Wed Apr 17, 9:10am EDT

Wed Apr 17, 8:10am EDT

Wed Apr 17, 7:10am EDT

Wed Apr 17, 6:10am EDT

Wed Apr 17, 5:10am EDT

Wed Apr 17, 4:10am EDT

Wed Apr 17, 3:10am EDT

Wed Apr 17, 2:10am EDT

Wed Apr 17, 1:10am EDT

Wed Apr 17, 12:10am EDT

Tue Apr 16, 11:10pm EDT

Tue Apr 16, 10:10pm EDT

Tue Apr 16, 9:10pm EDT

Tue Apr 16, 8:10pm EDT

Tue Apr 16, 7:10pm EDT

Tue Apr 16, 6:10pm EDT

Tue Apr 16, 5:10pm EDT

Tue Apr 16, 4:10pm EDT

Tue Apr 16, 3:10pm EDT

Tue Apr 16, 2:10pm EDT

Tue Apr 16, 1:10pm EDT

Tue Apr 16, 12:10pm EDT

Tue Apr 16, 11:10am EDT

Tue Apr 16, 10:10am EDT

Tue Apr 16, 9:10am EDT

Tue Apr 16, 8:10am EDT

Tue Apr 16, 7:10am EDT

Tue Apr 16, 6:10am EDT

Tue Apr 16, 5:10am EDT

Tue Apr 16, 4:10am EDT

Tue Apr 16, 3:10am EDT

Tue Apr 16, 2:10am EDT

Tue Apr 16, 1:10am EDT

Tue Apr 16, 12:10am EDT

Mon Apr 15, 11:10pm EDT

Mon Apr 15, 10:10pm EDT

Mon Apr 15, 9:10pm EDT

Mon Apr 15, 8:10pm EDT

Mon Apr 15, 7:10pm EDT

Mon Apr 15, 6:10pm EDT

Mon Apr 15, 5:10pm EDT

Mon Apr 15, 4:10pm EDT

Mon Apr 15, 3:10pm EDT

Mon Apr 15, 2:10pm EDT

Mon Apr 15, 1:10pm EDT

Mon Apr 15, 12:10pm EDT

Mon Apr 15, 11:10am EDT

Mon Apr 15, 10:10am EDT

Mon Apr 15, 9:10am EDT